User: anonymous   Login
Location: Lake Runnemede Observatory
(43.4843°N, 72.3851°W)
Time: 03:26:55
(UTC-05:00)
Language:

SPOT 5 - Orbit

View from above orbital plane
View from above orbital plane
View from above satellite
View from above satellite

Ground track
Ground track

The orbit data is extracted from the following two-line orbital elements,

1 27421U 02021A   17022.79732685 -.00000007  00000-0  99399-5 0  9992
2 27421  98.4267  85.7949 0136478  53.8116 307.5608 14.51837155764577
Epoch (UTC): 22 January 2017 19:08:09
Eccentricity: 0.0136478
inclination: 98.4267°
perigee height: 623 km
apogee height: 816 km
right ascension of ascending node: 85.7949°
argument of perigee: 53.8116°
revolutions per day: 14.51837155
mean anomaly at epoch: 307.5608°
orbit number at epoch: 76457

The dashed part of the orbit path shows where the satellite is in the earth's shadow,  

DLR